[[{"header":{"parameterUnit":"m.s-1","parameterCategory":1,"la1":30.2991,"la2":30.254,"lo1":-89.0895,"lo2":-89.0444,"dy":0.0017,"dx":0.0017,"nx":28,"ny":28,"refTime":"2024-09-04T09:00:00:Z","depth":0,"parameterNumber":2,"parameterNumberName":"U-component_of_WINDS"},"data":[0,0,0,0,0,0,0,0,0,0,0,0,0,0,0,0,0,0,0,0,0,0,0,0,0,0,0,0,0,0,0,0,0,0,0,0,0,0,0,0,0,0,0,0,0,0,0,0,0,0,0,0,0,0,0,0,0,0,-9.2021,-9.2023,0,-9.2152,-9.2153,-9.2155,-9.1981,-9.1975,-9.1969,-9.1963,-9.2098,-9.2107,-9.2116,0,0,0,0,0,0,0,0,0,0,0,0,0,-9.1623,-9.1632,-9.2021,-9.2023,-9.2024,-9.2151,-9.2153,-9.2155,-9.1982,-9.1975,-9.1967,-9.196,-9.2095,-9.2106,-9.2117,0,0,0,0,0,0,0,0,0,0,0,0,0,-9.1779,-9.1634,-9.2021,-9.1954,-9.1949,-9.2151,-9.2153,-9.2155,-9.1984,-9.1975,-9.1965,-9.1957,-9.2091,-9.2105,-9.2119,-9.2394,0,0,-9.2162,-9.2168,0,0,0,0,0,0,0,0,-9.1771,-9.1794,-9.1962,-9.1959,-9.1954,-9.204,-9.2062,-9.2235,-9.1986,-9.1971,-9.1963,-9.1952,-9.2087,-9.21,-9.2146,-9.24,-9.2406,-9.2163,-9.2172,-9.2178,-9.2182,0,0,0,0,0,0,0,-9.176,-9.1788,-9.2073,-9.1964,-9.196,-9.1917,-9.1929,-9.2094,-9.208,-9.1971,-9.1959,-9.1977,-9.2082,-9.2132,-9.2147,-9.2408,-9.2163,-9.2175,-9.2184,-9.219,-9.2894,-9.2903,0,0,0,0,0,0,-9.1757,-9.178,-9.2068,-9.2076,-9.1837,-9.1932,-9.1945,-9.2022,-9.2077,-9.2077,-9.1985,-9.1968,-9.2113,-9.2131,-9.2152,-9.2476,-9.2178,-9.2191,-9.2199,-9.2883,-9.2896,-9.2907,0,0,0,0,0,0,-9.1749,-9.1785,-9.2063,-9.1925,-9.1957,-9.1949,-9.2037,-9.203,-9.2079,-9.2087,-9.2084,-9.2038,-9.2106,-9.2132,-9.2334,-9.2478,-9.2197,-9.221,-9.2871,-9.2887,-9.2901,-9.3129,0,0,0,0,0,0,-9.1739,-9.1783,-9.1887,-9.1929,-9.1965,-9.2245,-9.2046,-9.2039,-9.2104,-9.2084,-9.2137,-9.2137,-9.2101,-9.2314,-9.2349,-9.2493,-9.2221,-9.2858,-9.2878,-9.2896,-9.3108,-9.315,-9.3185,0,0,0,0,0,-9.1725,-9.1946,-9.1893,-9.1929,-9.2095,-9.2253,-9.2274,-9.2228,-9.2116,-9.2221,-9.2226,-9.2135,-9.2458,-9.2337,-9.2374,-9.2524,-9.2849,-9.2873,-9.2895,-9.3091,-9.3142,-9.3185,0,0,0,0,0,0,-9.1922,-9.195,-9.1892,-9.2133,-9.2192,-9.2223,-9.2354,-9.2283,-9.2375,-9.2353,-9.2292,-9.2305,-9.2522,-9.2543,-9.2408,-9.2793,-9.2635,-9.2666,-9.2771,-9.2819,-9.2857,-9.2847,-9.2233,0,0,0,0,0,-9.1994,-9.2119,-9.2137,-9.2348,-9.2381,-9.2363,-9.243,-9.2389,-9.2448,-9.2472,-9.2492,-9.2553,-9.2668,-9.2745,-9.2851,-9.3111,-9.3119,-9.3233,-9.3271,-9.3303,-9.3331,-9.3469,-9.3519,-9.2982,-9.2982,-9.2982,0,0,-9.2143,-9.2173,-9.2257,-9.2389,-9.2429,-9.2561,-9.2385,-9.2532,-9.2629,-9.2494,-9.2687,-9.2704,-9.2768,-9.3001,-9.3104,-9.3025,-9.3481,-9.3332,-9.3357,-9.3368,-9.3498,-9.3549,-9.3594,-9.2998,-9.2995,-9.2993,0,0,-9.2481,-9.2517,-9.2697,-9.2741,-9.2805,-9.2792,-9.2836,-9.2878,-9.2884,-9.3077,-9.2978,-9.3093,-9.3292,-9.3342,-9.3393,-9.3751,-9.3671,-9.3788,-9.3989,-9.4125,-9.4167,-9.4204,-9.4331,-9.4378,-9.3815,-9.3816,-9.3816,0,-9.2658,-9.2852,-9.2798,-9.2952,-9.3013,-9.2897,-9.3078,-9.3124,-9.3221,-9.3265,-9.3175,-9.3423,-9.3458,-9.37,-9.3787,-9.3833,-9.388,-9.3781,-9.4165,-9.4202,-9.4236,-9.4357,-9.4405,-9.383,-9.3828,-9.3827,-9.3825,0,-9.3066,-9.3202,-9.334,-9.3435,-9.3511,-9.3678,-9.365,-9.3734,-9.3687,-9.3684,-9.3881,-9.3919,-9.403,-9.4085,-9.4041,-9.4322,-9.427,-9.4175,-9.4014,-9.4302,-9.4414,-9.446,-9.3849,-9.3844,-9.384,-9.3837,0,0,-9.3532,-9.3595,-9.3646,-9.3688,-9.375,-9.3854,-9.4016,-9.4125,-9.4198,-9.4269,-9.4403,-9.4574,-9.4485,-9.4544,-9.4504,-9.4624,-9.4904,-9.4513,-9.4513,-9.4584,-9.5215,-9.5287,-9.5341,-9.4852,-9.486,-9.4867,-9.521,0,-9.3869,-9.4148,-9.4105,-9.4375,-9.45,-9.4392,-9.4533,-9.4587,-9.4589,-9.4695,-9.4696,-9.4818,-9.4692,-9.4727,-9.484,-9.4846,-9.503,-9.4821,-9.4976,-9.4982,-9.4962,-9.54,-9.5475,-9.5797,-9.5253,-9.5261,-9.5266,0,-9.43,-9.4386,-9.4668,-9.4711,-9.4762,-9.4889,-9.4985,-9.5088,-9.5147,-9.514,-9.5206,-9.5145,-9.5306,-9.5144,-9.5366,-9.5225,-9.5286,-9.5299,-9.531,-9.5322,-9.5141,-9.5423,-9.5898,-9.5946,-9.5335,-9.5329,-9.5324,0,-9.461,-9.4797,-9.4989,-9.5028,-9.5083,-9.5175,-9.5202,-9.5252,-9.532,-9.5405,-9.5448,-9.5551,-9.5607,-9.5688,-9.5656,-9.5541,-9.5885,-9.572,-9.5883,-9.5884,-9.5959,-9.5955,-9.6451,-9.6001,-9.6,-9.5999,-9.5998,0,-9.4991,-9.5168,-9.5129,-9.5248,-9.5443,-9.5392,-9.5586,-9.56,-9.5646,-9.5765,-9.5679,-9.5793,-9.5745,-9.5856,-9.5832,-9.602,-9.6046,-9.6044,-9.6036,-9.6052,-9.6052,-9.609,-9.6066,-9.6012,-9.6009,-9.6007,-9.6004,0,-9.537,-9.5352,-9.5554,-9.559,-9.5603,-9.5745,-9.5775,-9.5886,-9.5881,-9.6034,-9.6066,-9.6059,-9.6185,-9.6161,-9.6301,-9.6285,-9.652,-9.6484,-9.65,-9.6491,-9.6655,-9.664,-9.7192,-9.7261,-9.6768,-9.6773,-9.6777,0,-9.5614,-9.5748,-9.5797,-9.5871,-9.5905,-9.6025,-9.6094,-9.6049,-9.6124,-9.6202,-9.6304,-9.6423,-9.6515,-9.6722,-9.6729,-9.6836,-9.6801,-9.6987,-9.6816,-9.6828,-9.6803,-9.6795,-9.6808,-9.7021,-9.7027,-9.7031,-9.7035,0,-9.6049,-9.6033,-9.6135,-9.6236,-9.632,-9.6397,-9.6465,-9.6531,-9.6492,-9.6581,-9.6709,-9.6781,-9.6923,-9.7042,-9.7141,-9.7169,-9.7097,-9.7089,-9.7132,-9.7149,-9.7152,-9.7152,-9.6591,-9.7076,-9.7072,-9.7069,-9.7067,-9.7065,-9.6367,-9.648,-9.6533,-9.665,-9.6697,-9.6763,-9.6869,-9.6877,-9.6983,-9.7094,-9.7062,-9.7207,-9.7263,-9.7388,-9.7428,-9.7541,-9.7472,-9.7535,-9.755,-9.7566,-9.7586,-9.7135,-9.7559,-9.7558,-9.7557,-9.7556,-9.7555,0,-9.6796,-9.6824,-9.6933,-9.7031,-9.7124,-9.7047,-9.7119,-9.7201,-9.733,-9.7388,-9.748,-9.7628,-9.7742,-9.7759,-9.7868,-9.7955,-9.7925,-9.7985,-9.7978,-9.7985,-9.7642,-9.7593,-9.8008,-9.8008,-9.8008,-9.8008,-9.8008,-9.8008,-9.703,-9.7217,-9.7208,-9.7418,-9.7445,-9.7587,-9.7634,-9.7695,-9.774,-9.7908,-9.8003,-9.8013,-9.8054,-9.8166,-9.8268,-9.8269,-9.8313,-9.8387,-9.8376,-9.8055,-9.801,-9.7966,-9.792,-9.8397,-9.8398,-9.871,-9.8713,-9.8715]},{"header":{"parameterUnit":"m.s-1","parameterCategory":1,"la1":30.2991,"la2":30.254,"lo1":-89.0895,"lo2":-89.0444,"dy":0.0017,"dx":0.0017,"nx":28,"ny":28,"refTime":"2024-09-04T09:00:00:Z","depth":0,"parameterNumber":3,"parameterNumberName":"V-component_of_WINDS"},"data":[0,0,0,0,0,0,0,0,0,0,0,0,0,0,0,0,0,0,0,0,0,0,0,0,0,0,0,0,0,0,0,0,0,0,0,0,0,0,0,0,0,0,0,0,0,0,0,0,0,0,0,0,0,0,0,0,0,0,-1.3311,-1.3309,0,-1.3171,-1.317,-1.3168,-1.3108,-1.3109,-1.3109,-1.3109,-1.2963,-1.2959,-1.2955,0,0,0,0,0,0,0,0,0,0,0,0,0,-1.352,-1.3517,-1.3311,-1.3309,-1.3307,-1.3171,-1.3169,-1.3168,-1.3108,-1.3109,-1.3109,-1.3109,-1.2965,-1.296,-1.2955,0,0,0,0,0,0,0,0,0,0,0,0,0,-1.341,-1.3516,-1.3311,-1.3262,-1.3256,-1.3172,-1.3169,-1.3167,-1.3108,-1.3109,-1.3109,-1.3109,-1.2966,-1.296,-1.2954,-1.2908,0,0,-1.2935,-1.2933,0,0,0,0,0,0,0,0,-1.3416,-1.3402,-1.3271,-1.3265,-1.3258,-1.3158,-1.319,-1.308,-1.3108,-1.3164,-1.3109,-1.311,-1.3027,-1.3016,-1.2989,-1.2901,-1.2895,-1.2935,-1.2931,-1.2928,-1.2926,0,0,0,0,0,0,0,-1.3424,-1.3408,-1.3255,-1.3269,-1.3261,-1.3244,-1.3229,-1.3169,-1.3095,-1.3159,-1.3155,-1.3139,-1.3024,-1.2995,-1.2985,-1.2893,-1.2935,-1.2929,-1.2926,-1.2923,-1.2755,-1.2754,0,0,0,0,0,0,-1.344,-1.3415,-1.326,-1.3251,-1.334,-1.324,-1.3223,-1.3189,-1.3096,-1.3082,-1.3139,-1.3137,-1.3006,-1.2993,-1.298,-1.2916,-1.2928,-1.2922,-1.2919,-1.2756,-1.2755,-1.2754,0,0,0,0,0,0,-1.3445,-1.3427,-1.3266,-1.3332,-1.331,-1.3236,-1.3199,-1.3187,-1.3158,-1.308,-1.3067,-1.3123,-1.3005,-1.2989,-1.2925,-1.2911,-1.292,-1.2914,-1.2757,-1.2756,-1.2755,-1.2792,0,0,0,0,0,0,-1.3451,-1.3429,-1.3413,-1.3332,-1.3307,-1.3216,-1.3198,-1.3183,-1.3147,-1.3143,-1.3062,-1.3049,-1.3004,-1.2935,-1.2919,-1.2902,-1.2909,-1.2758,-1.2756,-1.2755,-1.2792,-1.2792,-1.2793,0,0,0,0,0,-1.3459,-1.3429,-1.3412,-1.3394,-1.3285,-1.3215,-1.32,-1.3151,-1.3147,-1.3128,-1.3077,-1.3051,-1.2915,-1.2929,-1.2911,-1.2892,-1.2758,-1.2757,-1.2755,-1.2791,-1.2792,-1.2793,0,0,0,0,0,0,-1.3511,-1.3418,-1.3398,-1.3342,-1.3287,-1.3205,-1.3181,-1.3154,-1.3098,-1.3096,-1.3036,-1.3018,-1.2959,-1.2919,-1.2936,-1.284,-1.2834,-1.2829,-1.2868,-1.2868,-1.2869,-1.2879,-1.2904,0,0,0,0,0,-1.3516,-1.3468,-1.3389,-1.3347,-1.332,-1.3255,-1.3223,-1.3189,-1.3129,-1.3105,-1.3051,-1.2992,-1.2936,-1.29,-1.2844,-1.2786,-1.2765,-1.2763,-1.2764,-1.2764,-1.276,-1.2721,-1.2718,-1.2749,-1.2749,-1.2749,0,0,-1.3525,-1.3469,-1.3443,-1.3356,-1.3309,-1.3259,-1.3236,-1.3185,-1.3146,-1.3097,-1.3034,-1.2991,-1.2922,-1.286,-1.283,-1.2825,-1.2747,-1.2762,-1.2764,-1.2758,-1.2719,-1.2716,-1.2714,-1.2748,-1.2748,-1.2748,0,0,-1.3516,-1.3471,-1.3428,-1.3381,-1.331,-1.3267,-1.3256,-1.3178,-1.3148,-1.3083,-1.3044,-1.2996,-1.2901,-1.2852,-1.2815,-1.2783,-1.2755,-1.2766,-1.2768,-1.2731,-1.2729,-1.2726,-1.2711,-1.2707,-1.2762,-1.2762,-1.2762,0,-1.3537,-1.3462,-1.341,-1.3359,-1.332,-1.3273,-1.3228,-1.3185,-1.3099,-1.3072,-1.3068,-1.2945,-1.2896,-1.2819,-1.2811,-1.2783,-1.2767,-1.2775,-1.2734,-1.2731,-1.2727,-1.2712,-1.2707,-1.2764,-1.2764,-1.2763,-1.2763,0,-1.3488,-1.3436,-1.341,-1.3328,-1.3286,-1.3239,-1.3177,-1.3141,-1.3109,-1.3065,-1.2997,-1.2935,-1.2864,-1.2844,-1.2814,-1.2761,-1.276,-1.2746,-1.2738,-1.2727,-1.2711,-1.2706,-1.2766,-1.2765,-1.2765,-1.2765,0,0,-1.351,-1.3397,-1.3388,-1.3348,-1.3265,-1.3222,-1.3171,-1.3101,-1.3069,-1.3011,-1.2964,-1.2883,-1.2868,-1.2825,-1.2788,-1.2757,-1.273,-1.2745,-1.2742,-1.2742,-1.2664,-1.2673,-1.2668,-1.2711,-1.271,-1.2709,-1.2668,0,-1.3488,-1.3395,-1.3345,-1.3272,-1.3221,-1.3173,-1.3128,-1.307,-1.3026,-1.2975,-1.2926,-1.2868,-1.2854,-1.2828,-1.2794,-1.2741,-1.2713,-1.2743,-1.2664,-1.2662,-1.2681,-1.266,-1.2671,-1.2636,-1.2662,-1.2661,-1.2661,0,-1.3451,-1.3392,-1.3314,-1.3232,-1.3209,-1.3169,-1.3098,-1.3051,-1.2983,-1.2953,-1.2903,-1.2866,-1.2806,-1.2805,-1.272,-1.2741,-1.2705,-1.2674,-1.2671,-1.266,-1.2659,-1.2646,-1.2624,-1.2618,-1.2651,-1.2652,-1.2653,0,-1.347,-1.3372,-1.3311,-1.3279,-1.3183,-1.3155,-1.3114,-1.3046,-1.3006,-1.2944,-1.2916,-1.2848,-1.281,-1.2757,-1.2701,-1.2705,-1.262,-1.2614,-1.259,-1.2592,-1.2574,-1.2575,-1.2543,-1.2555,-1.2555,-1.2555,-1.2555,0,-1.345,-1.3403,-1.3318,-1.3281,-1.3225,-1.3167,-1.3113,-1.3067,-1.3007,-1.2957,-1.2912,-1.2866,-1.2796,-1.2741,-1.2696,-1.263,-1.2614,-1.2586,-1.2574,-1.2588,-1.2592,-1.2563,-1.2563,-1.2554,-1.2554,-1.2554,-1.2555,0,-1.3463,-1.3405,-1.3335,-1.3248,-1.3225,-1.3188,-1.3113,-1.3073,-1.3026,-1.2964,-1.2945,-1.2871,-1.2803,-1.2741,-1.2652,-1.2621,-1.2553,-1.254,-1.2576,-1.2569,-1.2547,-1.2549,-1.2493,-1.2481,-1.2505,-1.2505,-1.2505,0,-1.3453,-1.3416,-1.3325,-1.3288,-1.3247,-1.319,-1.3148,-1.3087,-1.3045,-1.2961,-1.2931,-1.2859,-1.2798,-1.2691,-1.2627,-1.2557,-1.254,-1.2525,-1.2529,-1.2543,-1.2535,-1.2537,-1.2531,-1.2525,-1.2525,-1.2525,-1.2525,0,-1.3441,-1.3412,-1.3354,-1.3284,-1.3235,-1.3177,-1.3117,-1.309,-1.3017,-1.2971,-1.29,-1.2853,-1.2759,-1.2687,-1.2609,-1.2563,-1.253,-1.2524,-1.2514,-1.2528,-1.2549,-1.2533,-1.2574,-1.2526,-1.2526,-1.2526,-1.2526,-1.2526,-1.3439,-1.3402,-1.3331,-1.3266,-1.3214,-1.3159,-1.3116,-1.3062,-1.3002,-1.2921,-1.2888,-1.2816,-1.2743,-1.2634,-1.2589,-1.2529,-1.2523,-1.251,-1.2505,-1.2502,-1.2503,-1.256,-1.2515,-1.2515,-1.2514,-1.2514,-1.2514,0,-1.3422,-1.3373,-1.3314,-1.3231,-1.3178,-1.3153,-1.3084,-1.3041,-1.2978,-1.2914,-1.2854,-1.277,-1.2699,-1.2629,-1.2553,-1.2518,-1.25,-1.25,-1.25,-1.2489,-1.2515,-1.2529,-1.2514,-1.2514,-1.2514,-1.2514,-1.2515,-1.2515,-1.3407,-1.3341,-1.3303,-1.321,-1.316,-1.3088,-1.3051,-1.2997,-1.2945,-1.2854,-1.2794,-1.2749,-1.268,-1.2598,-1.253,-1.2511,-1.2484,-1.2486,-1.2463,-1.2488,-1.2488,-1.2489,-1.2502,-1.2482,-1.2482,-1.2441,-1.2441,-1.2441]}]]